RYR86XQ LIME-LIBR

Flight info

Callsign RYR86XQ
Flight time 1h 22m
Altitude 35000
Route LOGDI1S LOGDI DCT OLNUK DCT LOMED DCT KATAR/N0453F390 DCT ATRUP DCT EKMIL DCT TOPNO/N0343F190 L995 ROBOT
Aircraft B38M/M-SDE1FGHILORVWXY/HB1

Departure

Time 2026-04-15 10:44
Airport Il Caravaggio International Airport (LIME)

Arrival

Time 2026-04-15 12:06
Airport Brindisi Airport (LIBR)
Time Latitude Longitude Altitude Speed Heading
2026-04-15 10:13 45.66773 9.69398 790 ft 0 kts 195°
2026-04-15 10:36 45.66769 9.69396 790 ft 2 kts 195°
2026-04-15 10:36 45.66750 9.69383 790 ft 5 kts 220°
2026-04-15 10:37 45.66745 9.69331 790 ft 7 kts 285°
2026-04-15 10:37 45.66760 9.69256 790 ft 9 kts 284°
2026-04-15 10:37 45.66778 9.69153 790 ft 12 kts 284°
2026-04-15 10:37 45.66816 9.69036 790 ft 14 kts 317°
2026-04-15 10:38 45.66885 9.68982 790 ft 9 kts
2026-04-15 10:38 45.66907 9.69051 790 ft 10 kts 97°
2026-04-15 10:38 45.66899 9.69159 790 ft 12 kts 99°
2026-04-15 10:38 45.66877 9.69286 790 ft 14 kts 107°
2026-04-15 10:39 45.66848 9.69434 790 ft 17 kts 105°
2026-04-15 10:39 45.66815 9.69608 790 ft 19 kts 105°
2026-04-15 10:39 45.66778 9.69805 790 ft 22 kts 105°
2026-04-15 10:39 45.66737 9.70025 790 ft 24 kts 105°
2026-04-15 10:40 45.66693 9.70266 790 ft 26 kts 105°
2026-04-15 10:40 45.66643 9.70529 790 ft 28 kts 105°
2026-04-15 10:40 45.66592 9.70813 790 ft 31 kts 105°
2026-04-15 10:40 45.66539 9.71090 790 ft 21 kts 109°
2026-04-15 10:41 45.66493 9.71265 790 ft 20 kts 107°
2026-04-15 10:41 45.66455 9.71467 790 ft 20 kts 105°
2026-04-15 10:41 45.66438 9.71610 790 ft 15 kts 83°
2026-04-15 10:41 45.66463 9.71753 790 ft 11 kts 75°
2026-04-15 10:42 45.66469 9.71872 790 ft 13 kts 100°
2026-04-15 10:42 45.66444 9.72011 790 ft 16 kts 105°
2026-04-15 10:42 45.66414 9.72179 790 ft 18 kts 103°
2026-04-15 10:42 45.66381 9.72364 790 ft 20 kts 104°
2026-04-15 10:43 45.66399 9.72465 790 ft 10 kts 22°
2026-04-15 10:43 45.66462 9.72431 790 ft 11 kts 286°
2026-04-15 10:43 45.66486 9.72307 790 ft 16 kts 285°
2026-04-15 10:43 45.66561 9.71891 790 ft 79 kts 284°
2026-04-15 10:44 45.66761 9.70821 790 ft 141 kts 284°
2026-04-15 10:44 45.67053 9.69294 1064 ft 168 kts 285°
2026-04-15 10:44 45.67394 9.67606 1629 ft 182 kts 282°
2026-04-15 10:44 45.67349 9.65838 2433 ft 181 kts 249°
2026-04-15 10:45 45.66563 9.64367 3020 ft 194 kts 216°
2026-04-15 10:45 45.65326 9.63581 3764 ft 193 kts 200°
2026-04-15 10:45 45.64200 9.62596 4470 ft 192 kts 224°
2026-04-15 10:45 45.63259 9.61215 4922 ft 196 kts 226°
2026-04-15 10:46 45.62331 9.59792 5664 ft 195 kts 227°
2026-04-15 10:46 45.61360 9.58376 6109 ft 208 kts 223°
2026-04-15 10:46 45.60271 9.56859 6473 ft 231 kts 223°
2026-04-15 10:46 45.59055 9.55143 6833 ft 253 kts 224°
2026-04-15 10:47 45.57830 9.53397 7855 ft 248 kts 223°
2026-04-15 10:47 45.56401 9.52022 8623 ft 253 kts 195°
2026-04-15 10:47 45.54684 9.51823 9493 ft 248 kts 167°
2026-04-15 10:47 45.53040 9.52598 10240 ft 252 kts 156°
2026-04-15 10:48 45.51397 9.53530 10982 ft 255 kts 156°
2026-04-15 10:48 45.49758 9.54479 11727 ft 260 kts 156°
2026-04-15 10:48 45.48053 9.55482 12525 ft 264 kts 156°
2026-04-15 10:48 45.46364 9.56484 13264 ft 269 kts 156°
2026-04-15 10:49 45.44627 9.57522 14034 ft 273 kts 155°
2026-04-15 10:49 45.42864 9.58580 14712 ft 278 kts 156°
2026-04-15 10:49 45.41025 9.59684 15108 ft 296 kts 156°
2026-04-15 10:49 45.39066 9.60860 15413 ft 316 kts 156°
2026-04-15 10:50 45.36980 9.62127 15691 ft 335 kts 153°
2026-04-15 10:50 45.34957 9.63886 16110 ft 347 kts 145°
2026-04-15 10:50 45.32913 9.65796 16639 ft 355 kts 146°
2026-04-15 10:50 45.30835 9.67724 17393 ft 358 kts 146°
2026-04-15 10:51 45.28734 9.69667 18034 ft 363 kts 146°
2026-04-15 10:51 45.26615 9.71624 18690 ft 365 kts 146°
2026-04-15 10:51 45.24475 9.73599 19274 ft 368 kts 146°
2026-04-15 10:51 45.22321 9.75585 19855 ft 371 kts 146°
2026-04-15 10:52 45.20142 9.77591 20419 ft 374 kts 146°
2026-04-15 10:52 45.17950 9.79608 20983 ft 377 kts 146°
2026-04-15 10:52 45.15740 9.81639 21539 ft 380 kts 146°
2026-04-15 10:52 45.13514 9.83683 22103 ft 383 kts 146°
2026-04-15 10:53 45.11278 9.85735 22636 ft 386 kts 146°
2026-04-15 10:53 45.09010 9.87813 23198 ft 389 kts 146°
2026-04-15 10:53 45.06730 9.89901 23742 ft 391 kts 146°
2026-04-15 10:53 45.04438 9.91999 24184 ft 395 kts 146°
2026-04-15 10:54 45.02145 9.94095 24597 ft 399 kts 145°
2026-04-15 10:54 44.99746 9.96187 25016 ft 403 kts 148°
2026-04-15 10:54 44.97336 9.98158 25452 ft 406 kts 148°
2026-04-15 10:54 44.94885 10.00180 25933 ft 408 kts 148°
2026-04-15 10:55 44.92428 10.02211 26347 ft 412 kts 147°
2026-04-15 10:55 44.89945 10.04264 26788 ft 415 kts 147°
2026-04-15 10:55 44.87448 10.06327 27185 ft 418 kts 147°
2026-04-15 10:55 44.84929 10.08406 27590 ft 421 kts 147°
2026-04-15 10:56 44.82398 10.10494 27980 ft 425 kts 147°
2026-04-15 10:56 44.79826 10.12613 28369 ft 428 kts 147°
2026-04-15 10:56 44.77249 10.14733 28758 ft 431 kts 147°
2026-04-15 10:56 44.74651 10.16869 29134 ft 434 kts 146°
2026-04-15 10:57 44.72037 10.19021 29553 ft 435 kts 146°
2026-04-15 10:57 44.67176 10.24067 30323 ft 438 kts 140°
2026-04-15 10:57 44.64754 10.26667 30699 ft 438 kts 141°
2026-04-15 10:58 44.63154 10.28383 31008 ft 437 kts 141°
2026-04-15 10:58 44.59904 10.31870 31337 ft 443 kts 140°
2026-04-15 10:58 44.58273 10.33619 31531 ft 444 kts 140°
2026-04-15 10:58 44.55815 10.36252 31821 ft 447 kts 140°
2026-04-15 10:59 44.53329 10.38910 32079 ft 450 kts 140°
2026-04-15 10:59 44.50832 10.41578 32366 ft 453 kts 140°
2026-04-15 10:59 44.48323 10.44256 32688 ft 455 kts 140°
2026-04-15 10:59 44.45799 10.46948 32979 ft 457 kts 140°
2026-04-15 11:00 44.43273 10.49639 33321 ft 457 kts 139°
2026-04-15 11:00 44.40734 10.52339 33645 ft 458 kts 139°
2026-04-15 11:00 44.38229 10.55092 33988 ft 456 kts 133°
2026-04-15 11:00 44.35931 10.58149 34317 ft 456 kts 134°
2026-04-15 11:01 44.33620 10.61161 34737 ft 452 kts 134°
2026-04-15 11:01 44.31309 10.64135 35069 ft 452 kts 135°
2026-04-15 11:01 44.28983 10.67103 35185 ft 454 kts 135°
2026-04-15 11:01 44.26653 10.70069 35171 ft 452 kts 135°
2026-04-15 11:02 44.22013 10.75963 35173 ft 451 kts 135°
2026-04-15 11:02 44.17367 10.81850 35163 ft 451 kts 135°
2026-04-15 11:03 44.12725 10.87720 35166 ft 451 kts 135°
2026-04-15 11:03 44.08072 10.93588 35143 ft 451 kts 134°
2026-04-15 11:04 44.03426 10.99447 35122 ft 451 kts 134°
2026-04-15 11:04 44.01368 11.02693 35120 ft 445 kts 123°
2026-04-15 11:04 43.99464 11.06100 35098 ft 447 kts 126°
2026-04-15 11:05 43.95604 11.12883 35090 ft 448 kts 126°
2026-04-15 11:05 43.91746 11.19663 35078 ft 447 kts 126°
2026-04-15 11:06 43.87888 11.26423 35124 ft 447 kts 125°
2026-04-15 11:06 43.84034 11.33169 35138 ft 443 kts 127°
2026-04-15 11:07 43.80218 11.39824 35110 ft 441 kts 127°
2026-04-15 11:07 43.76424 11.46429 35108 ft 441 kts 127°
2026-04-15 11:08 43.72599 11.53070 35110 ft 441 kts 128°
2026-04-15 11:08 43.68774 11.59702 35098 ft 441 kts 128°
2026-04-15 11:09 43.64946 11.66317 35098 ft 441 kts 127°
2026-04-15 11:09 43.61140 11.72886 35107 ft 431 kts 128°
2026-04-15 11:10 43.57406 11.79313 35093 ft 430 kts 128°
2026-04-15 11:10 43.53651 11.85762 35098 ft 432 kts 128°
2026-04-15 11:11 43.49900 11.92189 35089 ft 430 kts 128°
2026-04-15 11:11 43.46151 11.98599 35086 ft 430 kts 128°
2026-04-15 11:12 43.42389 12.05019 35069 ft 433 kts 129°
2026-04-15 11:12 43.38632 12.11414 35062 ft 427 kts 129°
2026-04-15 11:13 43.34960 12.17653 35067 ft 422 kts 129°
2026-04-15 11:13 43.31255 12.23933 35047 ft 425 kts 129°
2026-04-15 11:14 43.27524 12.30244 35044 ft 424 kts 129°
2026-04-15 11:14 43.23819 12.36497 35037 ft 420 kts 129°
2026-04-15 11:15 43.20111 12.42741 35052 ft 424 kts 129°
2026-04-15 11:15 43.16388 12.48999 35050 ft 421 kts 129°
2026-04-15 11:16 43.12687 12.55208 35049 ft 421 kts 129°
2026-04-15 11:16 43.08974 12.61425 35055 ft 422 kts 129°
2026-04-15 11:17 43.05219 12.67635 35039 ft 424 kts 134°
2026-04-15 11:17 43.01053 12.73224 35038 ft 423 kts 135°
2026-04-15 11:18 42.96826 12.78829 35024 ft 420 kts 136°
2026-04-15 11:18 42.92662 12.84331 35027 ft 418 kts 136°
2026-04-15 11:19 42.88474 12.89855 35014 ft 420 kts 136°
2026-04-15 11:19 42.84253 12.95409 35013 ft 422 kts 136°
2026-04-15 11:20 42.80035 13.00948 35019 ft 422 kts 136°
2026-04-15 11:20 42.75808 13.06487 35011 ft 421 kts 136°
2026-04-15 11:21 42.71583 13.12014 35013 ft 422 kts 136°
2026-04-15 11:21 42.67358 13.17530 35011 ft 420 kts 136°
2026-04-15 11:22 42.63148 13.23015 35017 ft 419 kts 136°
2026-04-15 11:22 42.58944 13.28482 35025 ft 419 kts 136°
2026-04-15 11:23 42.54759 13.33913 35011 ft 419 kts 136°
2026-04-15 11:23 42.50543 13.39373 35036 ft 419 kts 136°
2026-04-15 11:24 42.46328 13.44822 35017 ft 419 kts 136°
2026-04-15 11:24 42.42110 13.50265 35044 ft 419 kts 136°
2026-04-15 11:25 42.37904 13.55682 35037 ft 416 kts 136°
2026-04-15 11:25 42.34284 13.61712 35030 ft 415 kts 115°
2026-04-15 11:26 42.31833 13.68832 35027 ft 418 kts 116°
2026-04-15 11:26 42.29413 13.75974 35040 ft 419 kts 115°
2026-04-15 11:27 42.27011 13.83128 35051 ft 418 kts 115°
2026-04-15 11:27 42.24608 13.90275 35046 ft 417 kts 115°
2026-04-15 11:28 42.22210 13.97393 35053 ft 416 kts 115°
2026-04-15 11:28 42.19820 14.04463 35044 ft 417 kts 116°
2026-04-15 11:29 42.17413 14.11567 35054 ft 417 kts 116°
2026-04-15 11:29 42.15887 14.14850 35040 ft 413 kts 130°
2026-04-15 11:29 42.14060 14.17864 35040 ft 416 kts 128°
2026-04-15 11:30 42.10486 14.23930 35054 ft 412 kts 129°
2026-04-15 11:30 42.06891 14.29946 35054 ft 412 kts 129°
2026-04-15 11:31 42.03285 14.35955 35047 ft 412 kts 129°
2026-04-15 11:31 41.99680 14.41950 35052 ft 412 kts 129°
2026-04-15 11:32 41.96069 14.47945 35061 ft 412 kts 129°
2026-04-15 11:32 41.92456 14.53929 35047 ft 412 kts 129°
2026-04-15 11:33 41.88866 14.59864 35050 ft 412 kts 129°
2026-04-15 11:33 41.85245 14.65817 35040 ft 412 kts 132°
2026-04-15 11:34 41.83119 14.68377 35042 ft 410 kts 143°
2026-04-15 11:34 41.80938 14.70838 35003 ft 412 kts 131°
2026-04-15 11:34 41.79376 14.74023 35023 ft 409 kts 116°
2026-04-15 11:34 41.78274 14.77568 35033 ft 415 kts 113°
2026-04-15 11:35 41.76083 14.84691 35046 ft 413 kts 114°
2026-04-15 11:35 41.73868 14.91812 35035 ft 414 kts 114°
2026-04-15 11:36 41.71649 14.98920 35032 ft 415 kts 114°
2026-04-15 11:36 41.69415 15.06055 35046 ft 415 kts 114°
2026-04-15 11:37 41.67180 15.13176 35044 ft 415 kts 114°
2026-04-15 11:37 41.64940 15.20295 35038 ft 415 kts 114°
2026-04-15 11:38 41.62711 15.27357 35043 ft 415 kts 114°
2026-04-15 11:38 41.61575 15.30951 34664 ft 414 kts 114°
2026-04-15 11:38 41.60449 15.34504 34068 ft 415 kts 115°
2026-04-15 11:39 41.59332 15.38030 33602 ft 410 kts 115°
2026-04-15 11:39 41.58243 15.41463 33159 ft 404 kts 115°
2026-04-15 11:39 41.57139 15.44935 32643 ft 409 kts 114°
2026-04-15 11:39 41.56026 15.48432 32107 ft 411 kts 114°
2026-04-15 11:40 41.54904 15.51954 31597 ft 409 kts 114°
2026-04-15 11:40 41.53793 15.55436 31082 ft 407 kts 114°
2026-04-15 11:40 41.52685 15.58905 30560 ft 405 kts 114°
2026-04-15 11:40 41.51580 15.62360 30037 ft 403 kts 114°
2026-04-15 11:41 41.50482 15.65788 29446 ft 401 kts 115°
2026-04-15 11:41 41.49391 15.69189 28954 ft 397 kts 115°
2026-04-15 11:41 41.48311 15.72551 28467 ft 393 kts 115°
2026-04-15 11:41 41.47239 15.75887 27981 ft 389 kts 115°
2026-04-15 11:42 41.46175 15.79191 27509 ft 386 kts 115°
2026-04-15 11:42 41.45118 15.82472 27029 ft 383 kts 115°
2026-04-15 11:42 41.44070 15.85721 26567 ft 381 kts 115°
2026-04-15 11:42 41.43026 15.88951 26113 ft 378 kts 115°
2026-04-15 11:43 41.41989 15.92156 25664 ft 376 kts 115°
2026-04-15 11:43 41.40957 15.95345 25218 ft 374 kts 115°
2026-04-15 11:43 41.39928 15.98518 24778 ft 372 kts 116°
2026-04-15 11:43 41.38906 16.01666 24338 ft 370 kts 116°
2026-04-15 11:44 41.37888 16.04799 23925 ft 368 kts 116°
2026-04-15 11:44 41.36874 16.07917 23487 ft 366 kts 116°
2026-04-15 11:44 41.36203 16.09980 23165 ft 365 kts 116°
2026-04-15 11:44 41.35195 16.13071 22728 ft 362 kts 116°
2026-04-15 11:45 41.33873 16.17123 22190 ft 358 kts 116°
2026-04-15 11:45 41.32884 16.20151 21817 ft 355 kts 116°
2026-04-15 11:45 41.31901 16.23155 21415 ft 353 kts 116°
2026-04-15 11:45 41.30926 16.26133 21032 ft 350 kts 116°
2026-04-15 11:46 41.30269 16.28137 20790 ft 348 kts 116°
2026-04-15 11:46 41.29316 16.31038 20435 ft 347 kts 116°
2026-04-15 11:46 41.28353 16.33972 20033 ft 345 kts 116°
2026-04-15 11:46 41.27394 16.36888 19674 ft 342 kts 116°
2026-04-15 11:47 41.26446 16.39771 19324 ft 339 kts 116°
2026-04-15 11:47 41.25501 16.42639 18964 ft 337 kts 116°
2026-04-15 11:47 41.24563 16.45482 18612 ft 335 kts 116°
2026-04-15 11:47 41.23631 16.48306 18243 ft 332 kts 115°
2026-04-15 11:48 41.22706 16.51103 17856 ft 330 kts 116°
2026-04-15 11:48 41.21787 16.53883 17501 ft 327 kts 116°
2026-04-15 11:48 41.20876 16.56634 17143 ft 324 kts 116°
2026-04-15 11:48 41.19972 16.59360 16802 ft 320 kts 116°
2026-04-15 11:49 41.19077 16.62058 16462 ft 318 kts 116°
2026-04-15 11:49 41.18190 16.64729 16121 ft 315 kts 116°
2026-04-15 11:49 41.17307 16.67382 15789 ft 314 kts 116°
2026-04-15 11:49 41.16421 16.70046 15437 ft 319 kts 116°
2026-04-15 11:50 41.15518 16.72755 15094 ft 322 kts 116°
2026-04-15 11:50 41.14613 16.75472 14761 ft 321 kts 116°
2026-04-15 11:50 41.13712 16.78172 14417 ft 319 kts 116°
2026-04-15 11:50 41.12816 16.80852 14076 ft 317 kts 116°
2026-04-15 11:51 41.11926 16.83514 13715 ft 315 kts 116°
2026-04-15 11:51 41.11051 16.86129 13346 ft 312 kts 116°
2026-04-15 11:51 41.10162 16.88784 12975 ft 309 kts 116°
2026-04-15 11:51 41.09304 16.91342 12649 ft 306 kts 116°
2026-04-15 11:52 41.08444 16.93903 12324 ft 303 kts 116°
2026-04-15 11:52 41.07590 16.96446 11991 ft 300 kts 116°
2026-04-15 11:52 41.06744 16.98961 11660 ft 298 kts 116°
2026-04-15 11:52 41.05904 17.01459 11343 ft 295 kts 116°
2026-04-15 11:53 41.05072 17.03928 11024 ft 292 kts 116°
2026-04-15 11:53 41.04246 17.06376 10731 ft 290 kts 116°
2026-04-15 11:53 41.03433 17.08785 10587 ft 282 kts 116°
2026-04-15 11:53 41.02646 17.11116 10464 ft 273 kts 116°
2026-04-15 11:54 41.01883 17.13375 10337 ft 264 kts 116°
2026-04-15 11:54 41.01146 17.15553 10208 ft 255 kts 116°
2026-04-15 11:54 41.00430 17.17666 10039 ft 251 kts 116°
2026-04-15 11:54 40.99703 17.19811 9767 ft 259 kts 116°
2026-04-15 11:55 40.98960 17.22005 9457 ft 263 kts 116°
2026-04-15 11:55 40.98209 17.24216 9163 ft 264 kts 116°
2026-04-15 11:55 40.97454 17.26438 8864 ft 264 kts 116°
2026-04-15 11:55 40.96715 17.28613 8588 ft 262 kts 116°
2026-04-15 11:56 40.95971 17.30802 8315 ft 259 kts 116°
2026-04-15 11:56 40.95235 17.32963 8034 ft 256 kts 116°
2026-04-15 11:56 40.94505 17.35105 7761 ft 254 kts 116°
2026-04-15 11:56 40.93782 17.37226 7486 ft 252 kts 116°
2026-04-15 11:57 40.93068 17.39321 7217 ft 249 kts 116°
2026-04-15 11:57 40.91652 17.43465 6673 ft 243 kts 116°
2026-04-15 11:57 40.90966 17.45474 6431 ft 237 kts 115°
2026-04-15 11:58 40.90293 17.47438 6144 ft 232 kts 116°
2026-04-15 11:58 40.89634 17.49363 5887 ft 226 kts 116°
2026-04-15 11:58 40.88994 17.51231 5644 ft 220 kts 116°
2026-04-15 11:58 40.88371 17.53049 5394 ft 216 kts 116°
2026-04-15 11:59 40.87758 17.54832 5153 ft 216 kts 116°
2026-04-15 11:59 40.87138 17.56638 4928 ft 216 kts 116°
2026-04-15 11:59 40.86516 17.58449 4720 ft 218 kts 116°
2026-04-15 11:59 40.85883 17.60289 4426 ft 221 kts 117°
2026-04-15 12:00 40.85248 17.62146 4202 ft 220 kts 116°
2026-04-15 12:00 40.84650 17.63966 4116 ft 211 kts 115°
2026-04-15 12:00 40.84098 17.65737 4630 ft 205 kts 114°
2026-04-15 12:00 40.83611 17.67365 6115 ft 170 kts 113°
2026-04-15 12:01 40.83185 17.68786 6700 ft 179 kts 115°
2026-04-15 12:01 40.82588 17.70350 5949 ft 199 kts 118°
2026-04-15 12:01 40.81967 17.71974 5581 ft 197 kts 118°
2026-04-15 12:01 40.81373 17.73588 5281 ft 196 kts 117°
2026-04-15 12:02 40.80725 17.75230 4991 ft 205 kts 124°
2026-04-15 12:02 40.79955 17.76841 4625 ft 210 kts 124°
2026-04-15 12:02 40.79144 17.78449 4134 ft 212 kts 133°
2026-04-15 12:02 40.78071 17.79795 3594 ft 215 kts 139°
2026-04-15 12:03 40.76943 17.81145 2926 ft 224 kts 138°
2026-04-15 12:03 40.75785 17.82543 2364 ft 227 kts 137°
2026-04-15 12:03 40.74609 17.83972 1798 ft 231 kts 137°
2026-04-15 12:03 40.73444 17.85391 1490 ft 222 kts 137°
2026-04-15 12:04 40.72344 17.86736 1322 ft 208 kts 136°
2026-04-15 12:04 40.71331 17.87974 1186 ft 186 kts 136°
2026-04-15 12:04 40.70452 17.89050 1045 ft 162 kts 136°
2026-04-15 12:04 40.69639 17.90033 725 ft 151 kts 136°
2026-04-15 12:05 40.68892 17.90933 523 ft 146 kts 134°
2026-04-15 12:05 40.68156 17.91850 271 ft 143 kts 134°
2026-04-15 12:05 40.67446 17.92721 68 ft 135 kts 135°
2026-04-15 12:05 40.66831 17.93475 42 ft 92 kts 137°
2026-04-15 12:06 40.66468 17.93919 44 ft 65 kts 137°
2026-04-15 12:06 40.66153 17.94301 42 ft 53 kts 137°
2026-04-15 12:06 40.65973 17.94521 41 ft 10 kts 143°
2026-04-15 12:06 40.65911 17.94500 42 ft 10 kts 229°
2026-04-15 12:07 40.65868 17.94429 45 ft 10 kts 232°
2026-04-15 12:07 40.65822 17.94350 46 ft 12 kts 232°
2026-04-15 12:07 40.65766 17.94256 46 ft 14 kts 232°
2026-04-15 12:07 40.65726 17.94186 46 ft 8 kts 233°
2026-04-15 12:08 40.65690 17.94125 46 ft 6 kts 232°
2026-04-15 12:08 40.65701 17.94077 44 ft 7 kts 325°
2026-04-15 12:08 40.65739 17.94040 46 ft 5 kts 322°
2026-04-15 12:08 40.65755 17.94024 46 ft 2 kts 322°
2026-04-15 12:09 40.65756 17.94023 46 ft 0 kts 322°